| time (UTC) | temp F | wind direction | speed MPH | gust MPH | rain 1hr in | rain 24hr in | rain mn in | humidity % | barometer mb |
| 20260906233400 | 80 | 360 | 0.0 | 0.0 | 0.16 | 0.27 | 0.27 | 87 | 1006.5 |
| 20260906232905 | 80 | 167 | 0.0 | 0.0 | 0.21 | 0.27 | 0.27 | 86 | 1006.5 |
| 20260906232410 | 79 | 360 | 0.0 | 2.0 | 0.23 | 0.27 | 0.27 | 85 | 1006.6 |
| 20260906231917 | 79 | 142 | 0.0 | 2.0 | 0.27 | 0.27 | 0.27 | 85 | 1006.6 |
| 20260906231358 | 79 | 140 | 0.0 | 2.0 | 0.27 | 0.27 | 0.27 | 84 | 1006.6 |
| 20260906230902 | 79 | 140 | 0.0 | 3.0 | 0.27 | 0.27 | 0.27 | 83 | 1006.8 |
| 20260906230357 | 79 | 155 | 1.0 | 3.0 | 0.27 | 0.27 | 0.27 | 82 | 1006.8 |
| 20260906225839 | 79 | 211 | 2.0 | 4.0 | 0.27 | 0.27 | 0.27 | 79 | 1006.8 |
| 20260906225346 | 80 | 360 | 1.0 | 9.0 | 0.26 | 0.26 | 0.26 | 76 | 1007.1 |
| 20260906224850 | 81 | 215 | 5.0 | 9.0 | 0.25 | 0.25 | 0.25 | 75 | 1007.1 |
| 20260906224459 | 82 | 150 | 3.0 | 9.0 | 0.23 | 0.23 | 0.23 | 76 | 1007.1 |
| 20260906223941 | 84 | 360 | 1.0 | 7.0 | 0.14 | 0.14 | 0.14 | 74 | 1006.8 |
| 20260906223505 | 86 | 140 | 2.0 | 10.0 | 0.11 | 0.11 | 0.11 | 71 | 1006.9 |
| 20260906222947 | 90 | 108 | 4.0 | 10.0 | 0.06 | 0.06 | 0.06 | 62 | 1007.0 |
| 20260906222433 | 95 | 132 | 1.0 | 6.0 | 0.04 | 0.04 | 0.04 | 55 | 1006.6 |
| 20260906221938 | 96 | 186 | 2.0 | 6.0 | 0.00 | 0.00 | 0.00 | 48 | 1006.6 |
| 20260906221444 | 96 | 204 | 2.0 | 11.0 | 0.00 | 0.00 | 0.00 | 46 | 1006.6 |
| 20260906220927 | 96 | 224 | 4.0 | 11.0 | 0.00 | 0.00 | 0.00 | 45 | 1006.7 |
| 20260906220424 | 97 | 252 | 2.0 | 9.0 | 0.00 | 0.00 | 0.00 | 45 | 1006.7 |
| 20260906215927 | 97 | 204 | 2.0 | 6.0 | 0.00 | 0.00 | 0.00 | 45 | 1006.7 |
| 20260906215432 | 96 | 264 | 2.0 | 6.0 | 0.00 | 0.00 | 0.00 | 46 | 1007.0 |
| 20260906214940 | 96 | 234 | 4.0 | 7.0 | 0.00 | 0.00 | 0.00 | 45 | 1007.0 |
| 20260906214425 | 96 | 245 | 3.0 | 7.0 | 0.00 | 0.00 | 0.00 | 45 | 1007.0 |
| 20260906213909 | 95 | 220 | 3.0 | 7.0 | 0.00 | 0.00 | 0.00 | 45 | 1007.1 |
| 20260906213416 | 95 | 176 | 3.0 | 7.0 | 0.00 | 0.00 | 0.00 | 46 | 1007.1 |
| 20260906212857 | 95 | 248 | 3.0 | 7.0 | 0.00 | 0.00 | 0.00 | 46 | 1007.1 |
| 20260906212404 | 95 | 109 | 3.0 | 7.0 | 0.00 | 0.00 | 0.00 | 46 | 1007.2 |
| 20260906211931 | 94 | 238 | 4.0 | 6.0 | 0.00 | 0.00 | 0.00 | 47 | 1007.2 |
| 20260906211354 | 93 | 175 | 3.0 | 6.0 | 0.00 | 0.00 | 0.00 | 48 | 1007.2 |
| 20260906210858 | 93 | 134 | 3.0 | 9.0 | 0.00 | 0.00 | 0.00 | 48 | 1007.2 |
| 20260906210354 | 94 | 145 | 2.0 | 9.0 | 0.00 | 0.00 | 0.00 | 48 | 1007.3 |
| 20260906205837 | 94 | 148 | 2.0 | 5.0 | 0.00 | 0.00 | 0.00 | 46 | 1007.3 |
| 20260906205341 | 94 | 305 | 2.0 | 5.0 | 0.00 | 0.00 | 0.00 | 46 | 1007.7 |
| 20260906204846 | 93 | 202 | 3.0 | 5.0 | 0.00 | 0.00 | 0.00 | 48 | 1007.7 |
| 20260906204454 | 93 | 149 | 2.0 | 5.0 | 0.00 | 0.00 | 0.00 | 49 | 1007.7 |
| 20260906203956 | 93 | 175 | 3.0 | 5.0 | 0.00 | 0.00 | 0.00 | 48 | 1007.7 |
| 20260906203522 | 93 | 209 | 1.0 | 4.0 | 0.00 | 0.00 | 0.00 | 47 | 1007.7 |
| 20260906202943 | 93 | 144 | 1.0 | 6.0 | 0.00 | 0.00 | 0.00 | 48 | 1007.7 |
| 20260906202445 | 93 | 134 | 2.0 | 6.0 | 0.00 | 0.00 | 0.00 | 48 | 1007.8 |
| 20260906201932 | 93 | 204 | 3.0 | 5.0 | 0.00 | 0.00 | 0.00 | 48 | 1007.8 |
| 20260906201436 | 93 | 105 | 2.0 | 7.0 | 0.00 | 0.00 | 0.00 | 48 | 1007.8 |
| 20260906200922 | 93 | 126 | 3.0 | 7.0 | 0.00 | 0.00 | 0.00 | 48 | 1008.0 |
| 20260906200439 | 93 | 77 | 3.0 | 5.0 | 0.00 | 0.00 | 0.00 | 48 | 1008.0 |
| 20260906195923 | 93 | 131 | 2.0 | 6.0 | 0.00 | 0.00 | 0.00 | 47 | 1008.0 |
| 20260906195425 | 94 | 163 | 1.0 | 6.0 | 0.00 | 0.00 | 0.00 | 47 | 1008.2 |
| 20260906194910 | 94 | 159 | 2.0 | 6.0 | 0.00 | 0.00 | 0.00 | 46 | 1008.2 |
| 20260906194414 | 95 | 110 | 4.0 | 10.0 | 0.00 | 0.00 | 0.00 | 45 | 1008.2 |
| 20260906193918 | 96 | 128 | 3.0 | 10.0 | 0.00 | 0.00 | 0.00 | 44 | 1008.3 |
| 20260906193403 | 96 | 203 | 3.0 | 10.0 | 0.00 | 0.00 | 0.00 | 45 | 1008.3 |
| 20260906192907 | 95 | 194 | 4.0 | 10.0 | 0.00 | 0.00 | 0.00 | 45 | 1008.2 |
| 20260906192433 | 95 | 113 | 3.0 | 7.0 | 0.00 | 0.00 | 0.00 | 46 | 1008.4 |
| 20260906191858 | 95 | 336 | 4.0 | 7.0 | 0.00 | 0.00 | 0.00 | 44 | 1008.4 |
| 20260906191403 | 94 | 238 | 1.0 | 8.0 | 0.00 | 0.00 | 0.00 | 45 | 1008.4 |
| 20260906190845 | 94 | 300 | 4.0 | 8.0 | 0.00 | 0.00 | 0.00 | 44 | 1008.7 |
| 20260906190342 | 94 | 16 | 2.0 | 6.0 | 0.00 | 0.00 | 0.00 | 44 | 1008.7 |
| 20260906185849 | 94 | 119 | 4.0 | 9.0 | 0.00 | 0.00 | 0.00 | 44 | 1008.7 |
| 20260906185351 | 94 | 298 | 2.0 | 9.0 | 0.00 | 0.00 | 0.00 | 46 | 1008.8 |
| 20260906184837 | 94 | 219 | 2.0 | 6.0 | 0.00 | 0.00 | 0.00 | 46 | 1008.8 |
| 20260906184449 | 93 | 227 | 3.0 | 8.0 | 0.00 | 0.00 | 0.00 | 45 | 1008.8 |
| 20260906183957 | 93 | 265 | 4.0 | 8.0 | 0.00 | 0.00 | 0.00 | 43 | 1008.8 |
| 20260906183501 | 93 | 232 | 3.0 | 10.0 | 0.00 | 0.00 | 0.00 | 45 | 1008.8 |
| 20260906182948 | 93 | 185 | 4.0 | 10.0 | 0.00 | 0.00 | 0.00 | 46 | 1008.8 |
| 20260906182450 | 93 | 239 | 3.0 | 6.0 | 0.00 | 0.00 | 0.00 | 47 | 1009.2 |
| 20260906181934 | 93 | 240 | 3.0 | 6.0 | 0.00 | 0.00 | 0.00 | 48 | 1009.2 |
| 20260906181440 | 92 | 136 | 3.0 | 5.0 | 0.00 | 0.00 | 0.00 | 50 | 1009.1 |
| 20260906180946 | 91 | 321 | 1.0 | 6.0 | 0.00 | 0.00 | 0.00 | 51 | 1009.5 |
| 20260906180421 | 91 | 254 | 3.0 | 7.0 | 0.00 | 0.00 | 0.00 | 50 | 1009.5 |
| 20260906175948 | 91 | 265 | 3.0 | 7.0 | 0.00 | 0.00 | 0.00 | 51 | 1009.5 |
| 20260906175432 | 91 | 119 | 2.0 | 7.0 | 0.00 | 0.00 | 0.00 | 51 | 1009.8 |
| 20260906174917 | 91 | 205 | 0.0 | 7.0 | 0.00 | 0.00 | 0.00 | 51 | 1009.8 |
| 20260906174420 | 90 | 253 | 1.0 | 3.0 | 0.00 | 0.00 | 0.00 | 52 | 1009.8 |
| 20260906173908 | 90 | 259 | 2.0 | 7.0 | 0.00 | 0.00 | 0.00 | 52 | 1010.1 |
| 20260906173413 | 90 | 190 | 3.0 | 7.0 | 0.00 | 0.00 | 0.00 | 52 | 1010.1 |
| 20260906172916 | 90 | 228 | 4.0 | 7.0 | 0.00 | 0.00 | 0.00 | 53 | 1010.1 |
| 20260906172401 | 89 | 294 | 2.0 | 5.0 | 0.00 | 0.00 | 0.00 | 55 | 1010.4 |
| 20260906171906 | 89 | 192 | 3.0 | 6.0 | 0.00 | 0.00 | 0.00 | 56 | 1010.4 |
| 20260906171350 | 88 | 142 | 2.0 | 7.0 | 0.00 | 0.00 | 0.00 | 56 | 1010.4 |
| 20260906170855 | 88 | 141 | 3.0 | 7.0 | 0.00 | 0.00 | 0.00 | 56 | 1010.6 |
| 20260906170353 | 89 | 232 | 2.0 | 6.0 | 0.00 | 0.00 | 0.00 | 57 | 1010.6 |
| 20260906165839 | 89 | 150 | 2.0 | 6.0 | 0.00 | 0.00 | 0.00 | 57 | 1010.6 |
| 20260906165343 | 88 | 73 | 1.0 | 6.0 | 0.00 | 0.00 | 0.00 | 57 | 1010.6 |
| 20260906164849 | 88 | 131 | 3.0 | 5.0 | 0.00 | 0.00 | 0.00 | 59 | 1010.6 |
| 20260906164354 | 87 | 77 | 3.0 | 5.0 | 0.00 | 0.00 | 0.00 | 58 | 1010.6 |
| 20260906163957 | 86 | 132 | 1.0 | 4.0 | 0.00 | 0.00 | 0.00 | 57 | 1010.8 |
| 20260906163442 | 86 | 62 | 1.0 | 4.0 | 0.00 | 0.00 | 0.00 | 64 | 1010.7 |
| 20260906162949 | 85 | 229 | 2.0 | 4.0 | 0.00 | 0.00 | 0.00 | 66 | 1010.7 |
| 20260906162450 | 85 | 360 | 1.0 | 3.0 | 0.00 | 0.00 | 0.00 | 68 | 1010.8 |
| 20260906161933 | 85 | 360 | 2.0 | 3.0 | 0.00 | 0.00 | 0.00 | 68 | 1010.8 |
| 20260906161439 | 84 | 217 | 0.0 | 1.0 | 0.00 | 0.00 | 0.00 | 70 | 1010.8 |
| 20260906160925 | 84 | 222 | 0.0 | 4.0 | 0.00 | 0.00 | 0.00 | 70 | 1010.5 |
| 20260906160422 | 84 | 223 | 1.0 | 4.0 | 0.00 | 0.00 | 0.00 | 70 | 1010.5 |
| 20260906155943 | 84 | 236 | 1.0 | 3.0 | 0.00 | 0.00 | 0.00 | 72 | 1010.5 |
| 20260906155446 | 84 | 281 | 1.0 | 3.0 | 0.00 | 0.00 | 0.00 | 72 | 1010.4 |
| 20260906154932 | 84 | 166 | 1.0 | 4.0 | 0.00 | 0.00 | 0.00 | 72 | 1010.3 |
| 20260906154414 | 83 | 225 | 2.0 | 4.0 | 0.00 | 0.00 | 0.00 | 72 | 1010.3 |
| 20260906153919 | 83 | 161 | 0.0 | 3.0 | 0.00 | 0.00 | 0.00 | 72 | 1010.3 |
| 20260906153407 | 83 | 200 | 1.0 | 3.0 | 0.00 | 0.00 | 0.00 | 73 | 1010.3 |
| 20260906152911 | 82 | 252 | 1.0 | 3.0 | 0.00 | 0.00 | 0.00 | 73 | 1010.3 |
| 20260906152431 | 82 | 360 | 1.0 | 3.0 | 0.00 | 0.00 | 0.00 | 73 | 1010.2 |
| 20260906151900 | 82 | 235 | 1.0 | 3.0 | 0.00 | 0.00 | 0.00 | 74 | 1010.2 |
| 20260906151405 | 82 | 206 | 2.0 | 3.0 | 0.00 | 0.00 | 0.00 | 76 | 1010.2 |
| 20260906150849 | 81 | 157 | 0.0 | 3.0 | 0.00 | 0.00 | 0.00 | 77 | 1009.8 |
| 20260906150345 | 81 | 230 | 1.0 | 3.0 | 0.00 | 0.00 | 0.00 | 78 | 1009.8 |
| 20260906145848 | 81 | 155 | 0.0 | 2.0 | 0.00 | 0.00 | 0.00 | 79 | 1009.9 |
| 20260906145355 | 81 | 360 | 1.0 | 3.0 | 0.00 | 0.00 | 0.00 | 79 | 1009.9 |
| 20260906144840 | 80 | 212 | 1.0 | 3.0 | 0.00 | 0.00 | 0.00 | 80 | 1009.9 |
| 20260906144343 | 80 | 181 | 0.0 | 0.0 | 0.00 | 0.00 | 0.00 | 79 | 1009.9 |
| 20260906143948 | 80 | 167 | 0.0 | 0.0 | 0.00 | 0.00 | 0.00 | 79 | 1009.8 |
| 20260906143451 | 80 | 151 | 0.0 | 3.0 | 0.00 | 0.00 | 0.00 | 79 | 1009.8 |
| 20260906142939 | 80 | 146 | 1.0 | 3.0 | 0.00 | 0.00 | 0.00 | 79 | 1009.8 |
| 20260906142443 | 80 | 192 | 1.0 | 2.0 | 0.00 | 0.00 | 0.00 | 79 | 1009.6 |
| 20260906141950 | 80 | 348 | 0.0 | 0.0 | 0.00 | 0.00 | 0.00 | 78 | 1009.6 |
| 20260906141434 | 80 | 348 | 0.0 | 0.0 | 0.00 | 0.00 | 0.00 | 79 | 1009.6 |
| 20260906140939 | 79 | 348 | 0.0 | 0.0 | 0.00 | 0.00 | 0.00 | 79 | 1009.5 |
| 20260906140438 | 79 | 348 | 0.0 | 0.0 | 0.00 | 0.00 | 0.00 | 79 | 1009.5 |
| 20260906135942 | 79 | 348 | 0.0 | 0.0 | 0.00 | 0.00 | 0.00 | 79 | 1009.6 |
| 20260906135429 | 79 | 351 | 0.0 | 0.0 | 0.00 | 0.00 | 0.00 | 79 | 1009.5 |
| 20260906134915 | 78 | 9 | 0.0 | 0.0 | 0.00 | 0.00 | 0.00 | 79 | 1009.5 |
| 20260906134419 | 78 | 9 | 0.0 | 0.0 | 0.00 | 0.00 | 0.00 | 79 | 1009.5 |
| 20260906133906 | 78 | 248 | 0.0 | 0.0 | 0.00 | 0.00 | 0.00 | 80 | 1009.4 |
| 20260906133435 | 78 | 248 | 0.0 | 0.0 | 0.00 | 0.00 | 0.00 | 80 | 1009.4 |
| 20260906132916 | 78 | 248 | 0.0 | 0.0 | 0.00 | 0.00 | 0.00 | 80 | 1009.4 |
| 20260906132423 | 77 | 248 | 0.0 | 0.0 | 0.00 | 0.00 | 0.00 | 81 | 1009.2 |
| 20260906131907 | 77 | 248 | 0.0 | 0.0 | 0.00 | 0.00 | 0.00 | 81 | 1009.2 |
| 20260906131351 | 77 | 248 | 0.0 | 0.0 | 0.00 | 0.00 | 0.00 | 82 | 1009.2 |
| 20260906130900 | 77 | 248 | 0.0 | 0.0 | 0.00 | 0.00 | 0.00 | 82 | 1009.0 |
| 20260906130359 | 76 | 248 | 0.0 | 0.0 | 0.00 | 0.00 | 0.00 | 82 | 1009.0 |
| 20260906125843 | 76 | 247 | 0.0 | 0.0 | 0.00 | 0.00 | 0.00 | 82 | 1009.1 |
| 20260906125350 | 76 | 247 | 0.0 | 0.0 | 0.00 | 0.00 | 0.00 | 82 | 1008.8 |
| 20260906124855 | 76 | 247 | 0.0 | 0.0 | 0.00 | 0.00 | 0.00 | 82 | 1008.8 |
| 20260906124339 | 76 | 247 | 0.0 | 0.0 | 0.00 | 0.00 | 0.00 | 82 | 1008.8 |
| 20260906123953 | 76 | 246 | 0.0 | 0.0 | 0.00 | 0.00 | 0.00 | 82 | 1008.7 |
| 20260906123457 | 76 | 246 | 0.0 | 0.0 | 0.00 | 0.00 | 0.00 | 82 | 1008.7 |
| 20260906122943 | 76 | 246 | 0.0 | 0.0 | 0.00 | 0.00 | 0.00 | 82 | 1008.7 |
| 20260906122447 | 76 | 246 | 0.0 | 0.0 | 0.00 | 0.00 | 0.00 | 82 | 1008.3 |
| 20260906121934 | 76 | 246 | 0.0 | 0.0 | 0.00 | 0.00 | 0.00 | 81 | 1008.3 |
| 20260906121457 | 76 | 246 | 0.0 | 0.0 | 0.00 | 0.00 | 0.00 | 81 | 1008.3 |
| 20260906120940 | 76 | 248 | 0.0 | 0.0 | 0.00 | 0.00 | 0.00 | 81 | 1008.1 |
| 20260906120437 | 76 | 246 | 0.0 | 0.0 | 0.00 | 0.00 | 0.00 | 80 | 1008.1 |
| 20260906115920 | 76 | 246 | 0.0 | 0.0 | 0.00 | 0.00 | 0.00 | 80 | 1008.2 |
| 20260906115424 | 76 | 246 | 0.0 | 0.0 | 0.00 | 0.00 | 0.00 | 80 | 1007.9 |
| 20260906114953 | 77 | 246 | 0.0 | 0.0 | 0.00 | 0.00 | 0.00 | 80 | 1007.9 |
| 20260906114436 | 77 | 246 | 0.0 | 0.0 | 0.00 | 0.00 | 0.00 | 80 | 1007.9 |
| 20260906113921 | 77 | 246 | 0.0 | 0.0 | 0.00 | 0.00 | 0.00 | 79 | 1007.6 |
| 20260906113406 | 77 | 246 | 0.0 | 0.0 | 0.00 | 0.00 | 0.00 | 79 | 1007.6 |
| 20260906112910 | 77 | 246 | 0.0 | 0.0 | 0.00 | 0.00 | 0.00 | 79 | 1007.6 |
| 20260906112417 | 77 | 246 | 0.0 | 0.0 | 0.00 | 0.00 | 0.00 | 79 | 1007.6 |
| 20260906111901 | 77 | 246 | 0.0 | 0.0 | 0.00 | 0.00 | 0.00 | 79 | 1007.6 |
| 20260906111404 | 77 | 246 | 0.0 | 0.0 | 0.00 | 0.00 | 0.00 | 79 | 1007.6 |
| 20260906110907 | 77 | 246 | 0.0 | 0.0 | 0.00 | 0.00 | 0.00 | 79 | 1007.5 |
| 20260906110346 | 77 | 246 | 0.0 | 0.0 | 0.00 | 0.00 | 0.00 | 79 | 1007.5 |
| 20260906105850 | 77 | 246 | 0.0 | 0.0 | 0.00 | 0.00 | 0.00 | 79 | 1007.6 |
| 20260906105357 | 77 | 246 | 0.0 | 0.0 | 0.00 | 0.00 | 0.00 | 79 | 1007.5 |
| 20260906104845 | 77 | 246 | 0.0 | 0.0 | 0.00 | 0.00 | 0.00 | 78 | 1007.5 |
| 20260906104349 | 78 | 246 | 0.0 | 0.0 | 0.00 | 0.00 | 0.00 | 78 | 1007.5 |
| 20260906103957 | 78 | 246 | 0.0 | 0.0 | 0.00 | 0.00 | 0.00 | 78 | 1007.5 |
| 20260906103442 | 78 | 246 | 0.0 | 0.0 | 0.00 | 0.00 | 0.00 | 78 | 1007.5 |
| 20260906103008 | 78 | 246 | 0.0 | 0.0 | 0.00 | 0.00 | 0.00 | 78 | 1007.5 |
| 20260906102511 | 78 | 246 | 0.0 | 0.0 | 0.00 | 0.00 | 0.00 | 77 | 1007.2 |
| 20260906101935 | 78 | 246 | 0.0 | 0.0 | 0.00 | 0.00 | 0.00 | 77 | 1007.2 |
| 20260906101505 | 78 | 246 | 0.0 | 0.0 | 0.00 | 0.00 | 0.00 | 77 | 1007.2 |
| 20260906100945 | 78 | 246 | 0.0 | 0.0 | 0.00 | 0.00 | 0.00 | 77 | 1007.2 |
| 20260906100425 | 78 | 246 | 0.0 | 0.0 | 0.00 | 0.00 | 0.00 | 77 | 1007.2 |
| 20260906095928 | 78 | 246 | 0.0 | 0.0 | 0.00 | 0.00 | 0.00 | 77 | 1007.2 |
| 20260906095454 | 78 | 246 | 0.0 | 0.0 | 0.00 | 0.00 | 0.00 | 77 | 1007.4 |
| 20260906094921 | 78 | 246 | 0.0 | 0.0 | 0.00 | 0.00 | 0.00 | 77 | 1007.4 |
| 20260906094425 | 78 | 245 | 0.0 | 0.0 | 0.00 | 0.00 | 0.00 | 76 | 1007.4 |
| 20260906093909 | 79 | 245 | 0.0 | 0.0 | 0.00 | 0.00 | 0.00 | 76 | 1007.4 |
| 20260906093414 | 79 | 245 | 0.0 | 0.0 | 0.00 | 0.00 | 0.00 | 76 | 1007.4 |
| 20260906092920 | 79 | 245 | 0.0 | 0.0 | 0.00 | 0.00 | 0.00 | 75 | 1007.4 |
| 20260906092403 | 79 | 245 | 0.0 | 0.0 | 0.00 | 0.00 | 0.00 | 75 | 1007.3 |
| 20260906091909 | 79 | 245 | 0.0 | 0.0 | 0.00 | 0.00 | 0.00 | 75 | 1007.3 |
| 20260906091352 | 80 | 245 | 0.0 | 0.0 | 0.00 | 0.00 | 0.00 | 75 | 1007.3 |
| 20260906090857 | 80 | 245 | 0.0 | 0.0 | 0.00 | 0.00 | 0.00 | 75 | 1007.4 |
| 20260906090415 | 80 | 245 | 0.0 | 0.0 | 0.00 | 0.00 | 0.00 | 74 | 1007.4 |
| 20260906085857 | 80 | 245 | 0.0 | 0.0 | 0.00 | 0.00 | 0.00 | 74 | 1007.4 |
| 20260906085339 | 80 | 245 | 0.0 | 0.0 | 0.00 | 0.00 | 0.00 | 74 | 1007.2 |
| 20260906084842 | 80 | 245 | 0.0 | 0.0 | 0.00 | 0.00 | 0.00 | 74 | 1007.2 |
| 20260906084346 | 81 | 173 | 0.0 | 0.0 | 0.00 | 0.00 | 0.00 | 74 | 1007.2 |
| 20260906083852 | 81 | 173 | 0.0 | 0.0 | 0.00 | 0.00 | 0.00 | 73 | 1007.3 |
| 20260906083539 | 81 | 173 | 0.0 | 0.0 | 0.00 | 0.00 | 0.00 | 73 | 1007.3 |
| 20260906083025 | 81 | 173 | 0.0 | 0.0 | 0.00 | 0.00 | 0.00 | 73 | 1007.3 |
| 20260906082506 | 81 | 186 | 0.0 | 3.0 | 0.00 | 0.00 | 0.00 | 73 | 1007.2 |
| 20260906082010 | 81 | 186 | 1.0 | 3.0 | 0.00 | 0.00 | 0.00 | 72 | 1007.2 |
| 20260906081456 | 82 | 168 | 1.0 | 3.0 | 0.00 | 0.00 | 0.00 | 72 | 1007.2 |
| 20260906081020 | 82 | 360 | 1.0 | 4.0 | 0.00 | 0.00 | 0.00 | 72 | 1007.5 |
| 20260906080456 | 82 | 280 | 0.0 | 4.0 | 0.00 | 0.00 | 0.00 | 71 | 1007.5 |
| 20260906080007 | 82 | 360 | 0.0 | 3.0 | 0.00 | 0.00 | 0.00 | 71 | 1007.5 |
| 20260906075448 | 82 | 360 | 0.0 | 3.0 | 0.00 | 0.00 | 0.00 | 71 | 1007.7 |
| 20260906075015 | 82 | 360 | 1.0 | 3.0 | 0.00 | 0.00 | 0.00 | 71 | 1007.7 |
| 20260906074443 | 82 | 198 | 0.0 | 4.0 | 0.00 | 0.00 | 0.00 | 71 | 1007.7 |
| 20260906073948 | 83 | 161 | 2.0 | 4.0 | 0.00 | 0.00 | 0.00 | 70 | 1007.7 |
| 20260906073432 | 83 | 238 | 1.0 | 4.0 | 0.00 | 0.00 | 0.00 | 71 | 1007.7 |
| 20260906072938 | 83 | 165 | 2.0 | 4.0 | 0.00 | 0.00 | 0.00 | 71 | 1007.7 |
| 20260906072441 | 83 | 163 | 1.0 | 5.0 | 0.00 | 0.00 | 0.00 | 71 | 1008.0 |
| 20260906071927 | 83 | 148 | 1.0 | 5.0 | 0.00 | 0.00 | 0.00 | 71 | 1008.0 |
| 20260906071434 | 83 | 188 | 1.0 | 3.0 | 0.00 | 0.00 | 0.00 | 71 | 1008.0 |
| 20260906070936 | 83 | 360 | 0.0 | 6.0 | 0.00 | 0.00 | 0.00 | 71 | 1008.2 |
| 20260906070412 | 83 | 288 | 2.0 | 6.0 | 0.00 | 0.00 | 0.00 | 70 | 1008.2 |
| 20260906065920 | 83 | 360 | 1.0 | 5.0 | 0.00 | 0.00 | 0.00 | 70 | 1008.2 |
| 20260906065404 | 83 | 164 | 1.0 | 4.0 | 0.00 | 0.00 | 0.00 | 70 | 1008.2 |
| 20260906064930 | 83 | 159 | 1.0 | 4.0 | 0.00 | 0.00 | 0.00 | 70 | 1008.2 |
| 20260906064433 | 83 | 207 | 1.0 | 4.0 | 0.00 | 0.00 | 0.00 | 70 | 1008.2 |
| 20260906063915 | 84 | 175 | 2.0 | 5.0 | 0.00 | 0.00 | 0.00 | 69 | 1008.2 |
| 20260906063358 | 84 | 182 | 2.0 | 5.0 | 0.00 | 0.00 | 0.00 | 69 | 1008.2 |
| 20260906062902 | 84 | 155 | 1.0 | 3.0 | 0.00 | 0.00 | 0.00 | 69 | 1008.2 |
| 20260906062349 | 84 | 212 | 1.0 | 3.0 | 0.00 | 0.00 | 0.00 | 69 | 1008.3 |
| 20260906061856 | 84 | 221 | 1.0 | 8.0 | 0.00 | 0.00 | 0.00 | 69 | 1008.3 |
| 20260906061338 | 84 | 263 | 2.0 | 8.0 | 0.00 | 0.00 | 0.00 | 69 | 1008.3 |
| 20260906060842 | 84 | 163 | 2.0 | 5.0 | 0.00 | 0.00 | 0.00 | 69 | 1008.5 |
| 20260906060339 | 84 | 213 | 2.0 | 5.0 | 0.00 | 0.00 | 0.00 | 69 | 1008.5 |
| 20260906055927 | 84 | 189 | 2.0 | 5.0 | 0.00 | 0.00 | 0.00 | 69 | 1008.5 |
| 20260906055453 | 84 | 180 | 2.0 | 6.0 | 0.00 | 0.00 | 0.00 | 69 | 1008.3 |
| 20260906054938 | 84 | 159 | 2.0 | 6.0 | 0.00 | 0.00 | 0.00 | 68 | 1008.3 |
| 20260906054441 | 84 | 173 | 1.0 | 5.0 | 0.00 | 0.00 | 0.00 | 68 | 1008.3 |
| 20260906053923 | 84 | 169 | 1.0 | 3.0 | 0.00 | 0.00 | 0.00 | 68 | 1008.3 |
| 20260906053409 | 85 | 188 | 2.0 | 6.0 | 0.00 | 0.00 | 0.00 | 67 | 1008.3 |
| 20260906052937 | 85 | 178 | 3.0 | 7.0 | 0.00 | 0.00 | 0.00 | 67 | 1008.3 |
| 20260906052358 | 85 | 173 | 2.0 | 10.0 | 0.00 | 0.00 | 0.00 | 67 | 1008.6 |
| 20260906051905 | 85 | 360 | 2.0 | 7.0 | 0.00 | 0.00 | 0.00 | 67 | 1008.6 |
| 20260906051409 | 85 | 360 | 3.0 | 7.0 | 0.00 | 0.00 | 0.00 | 67 | 1008.6 |
| 20260906050853 | 85 | 360 | 3.0 | 6.0 | 0.00 | 0.00 | 0.00 | 66 | 1008.8 |
| 20260906050413 | 85 | 360 | 3.0 | 11.0 | 0.00 | 0.00 | 0.00 | 66 | 1008.8 |
| 20260906045854 | 85 | 360 | 3.0 | 11.0 | 0.00 | 0.00 | 0.00 | 66 | 1008.7 |
| 20260906045337 | 85 | 360 | 2.0 | 10.0 | 0.00 | 0.00 | 0.00 | 65 | 1008.7 |
| 20260906044842 | 85 | 360 | 3.0 | 10.0 | 0.00 | 0.00 | 0.00 | 65 | 1008.7 |
| 20260906044348 | 85 | 360 | 4.0 | 5.0 | 0.00 | 0.00 | 0.00 | 64 | 1008.7 |
| 20260906043832 | 85 | 360 | 2.0 | 6.0 | 0.00 | 0.00 | 0.00 | 64 | 1008.7 |
| 20260906043446 | 85 | 236 | 3.0 | 6.0 | 0.00 | 0.00 | 0.00 | 63 | 1008.7 |
| 20260906042957 | 85 | 360 | 2.0 | 6.0 | 0.00 | 0.00 | 0.00 | 63 | 1008.7 |
| 20260906042441 | 85 | 360 | 2.0 | 6.0 | 0.00 | 0.00 | 0.00 | 63 | 1008.3 |
| 20260906042006 | 85 | 360 | 2.0 | 7.0 | 0.00 | 0.00 | 0.00 | 62 | 1008.4 |
| 20260906041452 | 86 | 192 | 1.0 | 7.0 | 0.00 | 0.00 | 0.00 | 62 | 1008.4 |
| 20260906040931 | 86 | 169 | 3.0 | 5.0 | 0.00 | 0.00 | 0.00 | 62 | 1008.7 |
| 20260906040449 | 86 | 360 | 0.0 | 3.0 | 0.00 | 0.00 | 0.00 | 61 | 1008.7 |
| 20260906035934 | 86 | 360 | 2.0 | 5.0 | 0.00 | 0.00 | 0.00 | 61 | 1008.7 |
| 20260906035418 | 86 | 360 | 2.0 | 5.0 | 0.00 | 0.00 | 0.00 | 61 | 1008.3 |
| 20260906034924 | 86 | 360 | 3.0 | 6.0 | 0.00 | 0.00 | 0.00 | 61 | 1008.3 |
| 20260906034428 | 87 | 360 | 3.0 | 6.0 | 0.00 | 0.00 | 0.00 | 60 | 1008.3 |
| 20260906033914 | 87 | 154 | 1.0 | 7.0 | 0.00 | 0.00 | 0.00 | 60 | 1008.3 |
| 20260906033420 | 87 | 142 | 1.0 | 7.0 | 0.00 | 0.00 | 0.00 | 59 | 1008.3 |
| 20260906032906 | 87 | 190 | 2.0 | 10.0 | 0.00 | 0.00 | 0.00 | 59 | 1008.3 |
| 20260906032410 | 87 | 103 | 1.0 | 10.0 | 0.00 | 0.00 | 0.00 | 58 | 1008.2 |
| 20260906031856 | 88 | 144 | 2.0 | 9.0 | 0.00 | 0.00 | 0.00 | 58 | 1008.2 |
| 20260906031358 | 88 | 360 | 3.0 | 9.0 | 0.00 | 0.00 | 0.00 | 58 | 1008.2 |
| 20260906030902 | 88 | 126 | 4.0 | 7.0 | 0.00 | 0.00 | 0.00 | 57 | 1007.9 |
| 20260906030401 | 88 | 292 | 3.0 | 10.0 | 0.00 | 0.00 | 0.00 | 57 | 1007.9 |
| 20260906025848 | 88 | 187 | 6.0 | 11.0 | 0.00 | 0.00 | 0.00 | 56 | 1007.9 |
| 20260906025352 | 89 | 185 | 5.0 | 11.0 | 0.00 | 0.00 | 0.00 | 56 | 1007.6 |
| 20260906024837 | 89 | 179 | 4.0 | 8.0 | 0.00 | 0.00 | 0.00 | 56 | 1007.6 |
| 20260906024340 | 89 | 178 | 2.0 | 7.0 | 0.00 | 0.00 | 0.00 | 56 | 1007.6 |
| 20260906023906 | 89 | 159 | 1.0 | 5.0 | 0.00 | 0.00 | 0.00 | 56 | 1007.2 |
| 20260906022943 | 89 | 111 | 1.0 | 7.0 | 0.00 | 0.00 | 0.00 | 55 | 1007.2 |
| 20260906022447 | 89 | 63 | 5.0 | 9.0 | 0.00 | 0.00 | 0.00 | 55 | 1006.6 |
| 20260906021933 | 89 | 123 | 5.0 | 9.0 | 0.00 | 0.00 | 0.00 | 55 | 1006.7 |
| 20260906021435 | 90 | 360 | 2.0 | 6.0 | 0.00 | 0.00 | 0.00 | 55 | 1006.7 |
| 20260906020944 | 90 | 123 | 2.0 | 12.0 | 0.00 | 0.00 | 0.00 | 55 | 1006.7 |
| 20260906020441 | 90 | 84 | 5.0 | 12.0 | 0.00 | 0.00 | 0.00 | 54 | 1006.7 |
| 20260906015926 | 90 | 173 | 4.0 | 11.0 | 0.00 | 0.00 | 0.00 | 54 | 1006.7 |
| 20260906015433 | 90 | 131 | 4.0 | 11.0 | 0.00 | 0.00 | 0.00 | 54 | 1006.5 |
| 20260906014919 | 91 | 140 | 4.0 | 11.0 | 0.00 | 0.00 | 0.00 | 53 | 1006.5 |
| 20260906014425 | 91 | 65 | 2.0 | 11.0 | 0.00 | 0.00 | 0.00 | 52 | 1006.5 |
| 20260906013911 | 91 | 118 | 4.0 | 11.0 | 0.00 | 0.00 | 0.00 | 52 | 1006.1 |
| 20260906013418 | 92 | 207 | 4.0 | 11.0 | 0.00 | 0.00 | 0.00 | 51 | 1006.1 |
| 20260906012941 | 92 | 125 | 5.0 | 10.0 | 0.00 | 0.00 | 0.00 | 49 | 1006.1 |
| 20260906012407 | 92 | 128 | 4.0 | 6.0 | 0.00 | 0.00 | 0.00 | 48 | 1006.0 |
| 20260906011913 | 92 | 140 | 2.0 | 11.0 | 0.00 | 0.00 | 0.00 | 48 | 1006.0 |
| 20260906011358 | 92 | 74 | 4.0 | 11.0 | 0.00 | 0.00 | 0.00 | 48 | 1006.0 |
| 20260906010906 | 93 | 119 | 1.0 | 10.0 | 0.00 | 0.00 | 0.00 | 47 | 1006.2 |
| 20260906010404 | 93 | 93 | 3.0 | 10.0 | 0.00 | 0.00 | 0.00 | 47 | 1006.2 |
| 20260906005847 | 93 | 76 | 3.0 | 9.0 | 0.00 | 0.00 | 0.00 | 47 | 1006.0 |
| 20260906005353 | 93 | 122 | 4.0 | 6.0 | 0.00 | 0.00 | 0.00 | 45 | 1006.0 |
| 20260906004901 | 93 | 165 | 1.0 | 3.0 | 0.00 | 0.00 | 0.00 | 43 | 1006.0 |
| 20260906004344 | 94 | 111 | 1.0 | 6.0 | 0.00 | 0.00 | 0.00 | 42 | 1006.0 |
| 20260906003848 | 94 | 115 | 1.0 | 6.0 | 0.00 | 0.00 | 0.00 | 42 | 1005.9 |
| 20260906003418 | 95 | 115 | 3.0 | 7.0 | 0.00 | 0.00 | 0.00 | 42 | 1005.9 |
| 20260906003008 | 95 | 115 | 3.0 | 7.0 | 0.00 | 0.00 | 0.00 | 42 | 1006.0 |
| 20260906002454 | 95 | 117 | 3.0 | 5.0 | 0.00 | 0.00 | 0.00 | 41 | 1005.9 |
| 20260906001935 | 96 | 142 | 2.0 | 5.0 | 0.00 | 0.00 | 0.00 | 41 | 1005.9 |
| 20260906001442 | 96 | 90 | 3.0 | 6.0 | 0.00 | 0.00 | 0.00 | 40 | 1005.9 |
| 20260906000947 | 96 | 96 | 2.0 | 6.0 | 0.00 | 0.00 | 0.00 | 40 | 1005.8 |
| 20260906000442 | 96 | 74 | 2.0 | 3.0 | 0.00 | 0.00 | 0.00 | 39 | 1005.8 |
| 20260905235926 | 96 | 144 | 2.0 | 5.0 | 0.00 | 0.00 | 0.00 | 39 | 1005.8 |
| 20260905235429 | 96 | 127 | 1.0 | 5.0 | 0.00 | 0.00 | 0.00 | 39 | 1005.6 |
| 20260905234915 | 96 | 146 | 0.0 | 6.0 | 0.00 | 0.00 | 0.00 | 39 | 1005.7 |
| 20260905234422 | 96 | 46 | 1.0 | 6.0 | 0.00 | 0.00 | 0.00 | 39 | 1005.6 |
| 20260905233927 | 97 | 76 | 2.0 | 5.0 | 0.00 | 0.00 | 0.00 | 38 | 1005.7 |